Location: ???????
(55.4362°N, 38.1183°E)
Time: 02:14:54
(UTC+00:00)

METEOR M2 - Pass Details

Date: 01 December 2021
Orbit: 818 x 827 km, 98.4° (Epoch: 28 January)

Event Time Altitude Azimuth Distance (km) Brightness Sun altitude
Rises 13:40:40 0° 107° (ESE) 3,366 ? -5.3°
Reaches altitude 10° 13:43:42 10° 89° (E) 2,435 ? -5.7°
Maximum altitude 13:47:14 18° 48° (NE) 1,926 ? -6.1°
Drops below altitude 10° 13:50:46 10° 7° (N) 2,440 ? -6.6°
Sets 13:53:49 0° 349° (N) 3,376 ? -6.9°
